Terug naar catalogus

QIANFAN-183

ActiefCommunicatiePO
NORAD 69401·PAYLOAD·🇨🇳 China

Gelanceerd Jun 5, 2026 vanaf Wenchang Space Launch Site

Loading…

Volgende Passages (komende 24 uur)

TLE

VersSource: Space-Track

Epoch: Sep 14, 2026, 23:22 UTC

1 69401U 26125A   26257.97428658  .00000009  00000-0 -54845-5 0  9998
2 69401  88.9832 270.8709 0001964 101.8203 258.3168 13.51027462 14063

Volg QIANFAN-183 in realtime met AllMySat

Download on the App Store